Location: Montreal
(45.5087°N, 73.5540°W)
Time: 21:35:20
(UTC-05:00)

OTV 5 (USA 277) - Visible Passes

Search period start: 18 November 2018 00:00
Search period end: 28 November 2018 00:00
Orbit: 339 x 348 km, 54.5° (Epoch: 14 November)

Date Brightness Start Highest point End Pass type
(mag) Time Alt. Az. Time Alt. Az. Time Alt. Az.
24 Nov ? 06:12:06 10° S 06:14:28 23° SE 06:16:49 10° E visible
26 Nov ? 05:24:19 10° S 05:26:36 22° SE 05:28:54 10° E visible
27 Nov ? 05:47:27 13° SW 05:49:56 68° SE 05:52:48 10° ENE visible
